This is the latest recevied weather packets stored in our database for station/object KE8ZLU. If no packets are shown the sender has not sent any weather packets the latest 1 day(s).
| Time | Temp. | Humidity | Pressure | Rain* | Wind** | Luminosity | Snow |
|---|---|---|---|---|---|---|---|
| 1778039311 | 7.78° C | 63% | 1010.7 hPa | 0 mm | 1.79 m/s, 293° | 0 W/m² | - |
| 1778039008 | 7.78° C | 64% | 1010.5 hPa | 0 mm | 1.34 m/s, 294° | 0 W/m² | - |
| 1778038705 | 7.78° C | 64% | 1010.7 hPa | 0 mm | 1.79 m/s, 295° | 0 W/m² | - |
| 1778038402 | 7.78° C | 64% | 1010.5 hPa | 0 mm | 1.79 m/s, 281° | 0 W/m² | - |
| 1778038099 | 7.78° C | 65% | 1010.5 hPa | 0 mm | 0.89 m/s, 302° | 0 W/m² | - |
| 1778037796 | 7.78° C | 65% | 1010.8 hPa | 0 mm | 1.34 m/s, 285° | 0 W/m² | - |
| 1778037493 | 8.33° C | 64% | 1010.7 hPa | 0 mm | 1.34 m/s, 301° | 0 W/m² | - |
| 1778037190 | 7.78° C | 64% | 1010.4 hPa | 0 mm | 0.89 m/s, 292° | 0 W/m² | - |
| 1778036897 | 8.33° C | 64% | 1010.4 hPa | 0 mm | 0.89 m/s, 296° | 0 W/m² | - |
| 1778036586 | 8.33° C | 65% | 1010.4 hPa | 0 mm | 0.45 m/s, 288° | 0 W/m² | - |
| 1778036282 | 8.33° C | 64% | 1010.4 hPa | 0 mm | 1.34 m/s, 292° | 0 W/m² | - |
| 1778035978 | 8.33° C | 62% | 1010.5 hPa | 0 mm | 1.34 m/s, 283° | 0 W/m² | - |
| 1778035676 | 8.33° C | 61% | 1010.6 hPa | 0 mm | 1.79 m/s, 303° | 0 W/m² | - |
| 1778035372 | 8.33° C | 62% | 1010.5 hPa | 0 mm | 1.34 m/s, 294° | 0 W/m² | - |
| 1778035068 | 8.33° C | 62% | 1010.5 hPa | 0 mm | 0.45 m/s, 299° | 0 W/m² | - |
| 1778034766 | 8.33° C | 62% | 1010.3 hPa | 0 mm | 0.89 m/s, 276° | 0 W/m² | - |
| 1778034462 | 8.33° C | 61% | 1010.4 hPa | 0 mm | 0.89 m/s, 282° | 0 W/m² | - |
| 1778034160 | 8.33° C | 60% | 1010.3 hPa | 0 mm | 1.34 m/s, 275° | 0 W/m² | - |
| 1778033858 | 8.33° C | 61% | 1010.5 hPa | 0 mm | 0.89 m/s, 277° | 0 W/m² | - |
| 1778033555 | 8.33° C | 61% | 1010.2 hPa | 0 mm | 0.89 m/s, 274° | 0 W/m² | - |
| 1778033251 | 8.33° C | 60% | 1010.3 hPa | 0 mm | 1.79 m/s, 288° | 0 W/m² | - |
| 1778032949 | 8.33° C | 60% | 1010.4 hPa | 0 mm | 0.89 m/s, 285° | 0 W/m² | - |
| 1778032647 | 8.33° C | 59% | 1010.3 hPa | 0 mm | 1.79 m/s, 272° | 0 W/m² | - |
| 1778032344 | 8.89° C | 61% | 1010 hPa | 0 mm | 0.89 m/s, 290° | 0 W/m² | - |
| 1778032041 | 8.33° C | 61% | 1010.3 hPa | 0 mm | 0.89 m/s, 272° | 0 W/m² | - |
* Rain latest hour (hover to see other rain measurements)
** Current wind speed in m/s (hover to see current wind gust speed)